Tracking 18980 objects as of 22-Feb-2018
HD Live streaming from Space Station
objects crossing your sky now

FENGYUN 1C DEB

Track FENGYUN 1C DEB now!
10-day predictions


NORAD ID: 30272
Int'l Code: 1999-025YH
Perigee: 841.7 km
Apogee: 929.0 km
Inclination: 99.1 °
Period: 102.5 minutes
Semi major axis: 7256 km
RCS: 0.033 m2 (small)
Launch date: May 10, 1999
Source: People's Republic of China (PRC)
Launch site: Taiyaun Space Center, China (TSC)

Note: This is SATELLITE DEBRIS
aabbcc
Your satellite tracking list
Your tracking list is empty




NASA's NSSDC Master Catalog

Two Line Element Set (TLE):
1 30272U 99025YH  18052.59257075  .00000260  00000-0  18804-3 0  9997
2 30272  99.0977  95.2389 0060153 156.9509 203.4377 14.04510923567635
Source of the keplerian elements: AFSPC